Overview Statistics Trail Chart Weather Telemetry Raw packets
 

This is the latest recevied weather packets stored in our database for station/object IU5JAE-13. If no packets are shown the sender has not sent any weather packets the latest 10 day(s).

<< 9 10 11 12 13 14 15 >>
Time Temp. Humidity Pressure Rain* Wind** Luminosity Snow
1788555924 21.67° C 66% 1021.2 hPa 0 mm - 0 W/m² -
1788555321 21.67° C 66% 1021.2 hPa 0 mm - 0 W/m² -
1788554719 21.67° C 67% 1021.1 hPa 0 mm - 0 W/m² -
1788554116 21.67° C 68% 1021.3 hPa 0 mm - 0 W/m² -
1788553534 22.22° C 67% 1021.3 hPa 0 mm - 0 W/m² -
1788552932 22.78° C 64% 1021.4 hPa 0 mm - 0 W/m² -
1788552329 23.33° C 63% 1021.4 hPa 0 mm - 0 W/m² -
1788551727 23.33° C 62% 1021.3 hPa 0 mm - 0 W/m² -
1788551125 23.89° C 61% 1021.2 hPa 0 mm - 0 W/m² -
1788550522 23.89° C 60% 1021.2 hPa 0 mm - 0 W/m² -
1788549920 23.89° C 62% 1021.2 hPa 0 mm - 0 W/m² -
1788549317 23.89° C 61% 1021.1 hPa 0 mm - 0 W/m² -
1788548735 23.89° C 61% 1021 hPa 0 mm - 0 W/m² -
1788548132 23.89° C 61% 1021 hPa 0 mm - 0 W/m² -
1788547530 24.44° C 62% 1020.9 hPa 0 mm - 0 W/m² -
1788546928 24.44° C 63% 1020.7 hPa 0 mm - 0 W/m² -
1788546325 25° C 62% 1020.7 hPa 0 mm - 0 W/m² -
1788545723 25° C 60% 1020.6 hPa 0 mm - 0 W/m² -
1788545120 25.56° C 59% 1020.7 hPa 0 mm - 0 W/m² -
1788544518 25.56° C 58% 1020.5 hPa 0 mm - 2 W/m² -
1788543915 25.56° C 58% 1020.5 hPa 0 mm - 5 W/m² -
1788543333 26.11° C 57% 1020.5 hPa 0 mm - 9 W/m² -
1788542731 25.56° C 56% 1020.3 hPa 0 mm - 13 W/m² -
1788542128 25.56° C 58% 1020.7 hPa 0 mm - 16 W/m² -
1788541526 26.11° C 57% 1020.7 hPa 0 mm - 20 W/m² -

* Rain latest hour (hover to see other rain measurements)
** Current wind speed in m/s (hover to see current wind gust speed)